Regional Weather Roundup
Issued by NWS

Home | Current Version | Previous Version | Graphics & Text | Print | Product List | Glossary On
Versions: 1 2 3 4 5 6 7 8 9 10 11 12 13 14 15 16 17 18 19 20 21 22 23 24 25 26 27 28 29 30 31 32 33 34 35 36 37 38 39 40 41 42 43 44 45 46 47 48 49 50
000
ASUS45 KTFX 180010
RWRMT
MONTANA REGIONAL WEATHER ROUNDUP
NATIONAL WEATHER SERVICE GREAT FALLS MT
500 PM MST TUE JAN 17 2017

NOTE: "FAIR" INDICATES FEW OR NO CLOUDS BELOW 12000 FEET WITH NO
SIGNIFICANT WEATHER AND/OR OBSTRUCTIONS TO VISIBILITY.

MTZ001>007-043-180100-
WEST OF THE DIVIDE

CITY           SKY/WX    TMP DP  RH WIND       PRES   REMARKS
KALISPELL      CLOUDY    20  16  84 CALM      29.95F
MISSOULA       MOCLDY    16  10  77 SW5       30.00F
BUTTE          CLOUDY    22  12  65 CALM      29.94F
MULLAN PASS    CLOUDY    28  19  69 S9G17     29.84F WCI  19
ANACONDA         N/A     39  12  33 S15G28    29.91F WCI  31
DEER LODGE       N/A     18  10  73 N9        29.93R WCI   6
EUREKA           N/A     30  19  64 S9        29.92R WCI  22
HAMILTON         N/A     16   7  67 SE5       29.99R
PLAINS           N/A     21  11  65 CALM      29.97F
RONAN            N/A     14  10  84 N2        29.98F
$$

MTZ008-052>055-180100-
SOUTHWEST MONTANA

CITY           SKY/WX    TMP DP  RH WIND       PRES   REMARKS
BOZEMAN        CLOUDY    20  12  71 N3        29.99S
DILLON         CLOUDY    34  12  40 SE8       30.00R WCI  27
W YELLOWSTONE  CLOUDY    18  12  79 NW3       30.13S
ENNIS          CLEAR     28  16  59 S18       30.03F WCI  16
TWIN BRIDGES     N/A     22   8  54 E5        30.00S
$$

MTZ009-010-012-014-046-048-049-054-180100-
EAST SLOPES AND CENTRAL MONTANA

CITY           SKY/WX    TMP DP  RH WIND       PRES   REMARKS
CUT BANK       PTCLDY    42  25  50 SW26G33   29.73F
GREAT FALLS    CLEAR     42  23  46 SW22      29.79R
MALMSTROM AFB  CLEAR     39  29  68 SW17      29.79R WCI  30
HELENA         CLOUDY    13   5  70 CALM      29.96R HAZE
CHOTEAU          N/A     45  30  57 SW12G17   29.79S
CONRAD           N/A     43  33  67 SW14      29.80R
$$

MTZ011-013-016-021-045-047-050-051-180100-
NORTH CENTRAL MONTANA

CITY           SKY/WX    TMP DP  RH WIND       PRES   REMARKS
HAVRE          CLEAR     40  30  67 SW20      29.72F
LEWISTOWN      CLOUDY    41  31  67 SW22      29.79F
N BAR RANCH      N/A     50  30  46 W6        29.81F
CHINOOK          N/A     46  28  49 SW17      29.68F
FORT BENTON      N/A     46  28  49 MISG      29.77S
$$

MTZ017>020-022>027-061-062-180100-
NORTHEAST MONTANA

CITY           SKY/WX    TMP DP  RH WIND       PRES   REMARKS
GLASGOW        CLOUDY    31  20  63 S7        29.70S WCI  24
JORDAN           N/A     39  30  70 W9        29.74S
SIDNEY         CLOUDY    28  21  75 S20       29.74R WCI  15
WOLF POINT     CLOUDY    26  18  71 W5        29.72S
PLENTYWOOD       N/A     41  27  56 SW10      29.66R
POPLAR           N/A     28  18  64 CALM      29.72S
SCOBEY           N/A     38  23  55 CALM      29.68R
$$

MTZ028>42-056>058-180100-
SOUTHCENTRAL AND SOUTHEAST MONTANA

CITY           SKY/WX    TMP DP  RH WIND       PRES   REMARKS
BAKER          CLOUDY    33  20  58 W20       29.81S WCI  21
BILLINGS       CLOUDY    34  14  43 SW23      29.87F WCI  22
LIVINGSTON     CLOUDY    43  19  38 SW29G37   29.90F
MILES CITY     CLOUDY    28  17  63 S10       29.82R WCI  19
BIG TIMBER     CLEAR     43  19  39 W26G35    29.89S
EKALAKA          N/A     38  14  37 SW12      29.83R WCI  30
FORSYTH          N/A     43  21  42 SW3       29.81S
LAUREL           N/A     33  14  45 S15       29.88S WCI  23
$$

REGIONAL REPORTS...DAKOTAS

CITY           SKY/WX    TMP DP  RH WIND       PRES   REMARKS
WILLISTON      CLOUDY    30  20  66 SW10      29.72R WCI  21
MINOT          CLOUDY    34  22  61 SW20G28   29.65S WCI  23
DICKINSON      CLOUDY    30  20  66 W15       29.75S WCI  19
BEACH            N/A     32  19  59 SW15G21   29.81S WCI  22
CROSBY           N/A     32  25  74 SW20      29.65S WCI  20
TIOGA            N/A     28  25  86 SW21      29.68F WCI  15
WATFORD CITY     N/A     32  23  69 W10G16    29.72F WCI  24
BISMARCK       CLOUDY    28  17  63 SW6       29.79S WCI  22
GRAND FORKS    CLOUDY    21  16  81 S17       29.76F WCI   7
FARGO          CLOUDY    21  17  84 S14       29.86F WCI   8
BUFFALO SD       N/A     35  22  58 W9        29.77S WCI  28
RAPID CITY     CLOUDY    35  17  47 CALM      29.88S
$$

REGIONAL REPORTS...WYOMING/IDAHO/WASHINGTON

CITY           SKY/WX    TMP DP  RH WIND       PRES   REMARKS
GILLETTE       CLOUDY    39  23  52 SW18      29.90R WCI  30
SHERIDAN       CLOUDY    27  15  61 VRB6      29.87S WCI  20
BUFFALO WY     CLOUDY    44  19  36 W5        29.90F
CODY           CLOUDY    22  11  62 CALM      29.95R
YELLOWSTONE LA   N/A      9   6  88 CALM      30.12S
IDAHO FALLS    CLOUDY     8   3  80 N7        30.22F WCI  -3
SALMON         CLOUDY    -2  -8  78 CALM      30.26R
BOISE          PTCLDY    14   6  70 W14G21    30.24F HAZE    WCI  -1
SPOKANE        CLOUDY    25  20  81 NE7       29.89F WCI  17
$$

REGIONAL REPORTS...ALBERTA

CITY           SKY/WX    TMP DP  RH WIND       PRES   REMARKS
EDMONTON       MOCLDY    37  27  65 E3        29.34S
CALGARY        PTCLDY    46  30  53 S10G17    29.45F
LETHBRIDGE     MOCLDY    43  32  65 W15G22    29.65F
MEDICINE HAT   MOCLDY    43  32  65 SW22G30   29.53S
WATERTON GATE    N/A     43  28  56 SW24G41     N/A
CARDSTON         N/A     48  32  53 W16G24      N/A
MILK RIVER       N/A     43  32  65 SW28        N/A
$$

REGIONAL REPORTS...SASKATCHEWAN

CITY           SKY/WX    TMP DP  RH WIND       PRES   REMARKS
SWIFT CURRENT  CLEAR     37  32  81 SW13G18   29.54S WCI  29
REGINA         MOCLDY    36  30  80 W6        29.54R WCI  31
SASKATOON      MOCLDY    34  30  86 SW8       29.47F WCI  27
VAL MARIE        N/A     39  28  65 W26         N/A  WCI  28
ASSINIBOIA       N/A     36  32  87 SW3         N/A
$$



USA.gov is the U.S. government's official web portal to all federal, state and local government web resources and services.